Погода в Никульевке

Россия / Пензенская область     53°03′41″N   42°50′28″E
темп.,
°C
ветер,
м/с
пор.,
м/с
влажн.,
%
обл.,
%
осадки,
мм/ч
давл.,
гПа
погр.,
м
18 апреля, вс
вс1800:00+9ююз1288100 9.8 1019149
03:00+7з24920 9.8 1019152
06:00+6зсз24900 0.0 1019103
09:00+10сз22670 0.0 1019627
12:00+13зюз11540 0.0 10191303
15:00+14вюв224514 0.0 10191766
18:00+13вюв225515 0.1 1018659
21:00+9всв35888 1.3 1019159
19 апреля, пн
пн1900:00+8св3483100 0.1 101983
03:00+8в498691 0.4 1018287
06:00+7в51081100 0.8 1018420
09:00+6всв61094100 3.8 1019638
12:00+6в51092100 6.0 1019888
15:00+7в71188100 6.5 1019876
18:00+7всв5989100 0.2 10191035
21:00+7всв61287100 0.6 1019600
20 апреля, вт
вт2000:00+6в81187100 1.0 10191003
03:00+3в71296100 1.5 1020615
06:00+4в71292100 0.1 1019684
09:00+4вюв71391100 0.6 1019657
12:00+5вюв81488100 0.1 1019737
15:00+3вюв91787100 0.8 1018748
18:00+4вюв102085100 0.9 1015789
21:00+5вюв142590100 7.3 1011840
21 апреля, ср
ср2100:00+6юв132292100 5.8 10091009
03:00+7юв122191100 6.9 1007990
06:00+8юв122089100 0.4 10061114
09:00+8ююв111886100 1.0 10071273
12:00+8ююз101578100 0.5 10111388
15:00+9ююз71378100 0.5 10141403
18:00+9ююз5108095 0.0 1015588
21:00+7ююв4992100 0.2 1017195
22 апреля, чт
чт2200:00+7ю489558 0.9 1017216
03:00+5ююз49925 0.9 1019187
06:00+4ююз37920 0.0 1021190
09:00+10ююз57632 0.0 1022668
12:00+13ююз575565 0.0 10221581
15:00+13юз4659100 0.0 10221014
18:00+12ю2362100 0.0 102272
21:00+11ю3458100 0.0 102358